When you browse on this site, cookies collect data to enhance your experience and personalize the content and advertising you see.
Visit our Privacy Policy to learn more. By continuing to use the site, you agree to this use of cookies and data.
  • In Sweden
  • List of Countries
  • For 7 days
  • Water Temperature
  • Weather Map
  • Weather Widgets
  • user-avatar
    Login

    Hourly Weather Bruay-la-Buissiere

    Today, 11 December, Wednesday

    Time Temperature Precipitation Wind Pressure Humidity
    00:00 +6°C° 0 mm 8 mps 752 mmHg 85%
    01:00 +6°C° 0.3 mm 7 mps 752 mmHg 87%
    02:00 +7°C° 0.3 mm 5 mps 752 mmHg 90%
    03:00 +7°C° 0.3 mm 3 mps 751 mmHg 92%
    04:00 +7°C° 0.3 mm 3 mps 751 mmHg 91%
    05:00 +7°C° 0.3 mm 2 mps 751 mmHg 90%
    06:00 +7°C° 0 mm 2 mps 751 mmHg 88%
    07:00 +6°C° 0 mm 2 mps 751 mmHg 86%
    08:00 +6°C° 0 mm 2 mps 750 mmHg 85%
    09:00 +6°C° 0 mm 2 mps 750 mmHg 84%
    10:00 +7°C° 0 mm 3 mps 750 mmHg 81%
    11:00 +7°C° 0 mm 3 mps 749 mmHg 77%
    12:00 +7°C° 0 mm 4 mps 749 mmHg 73%
    13:00 +7°C° 0.1 mm 4 mps 748 mmHg 75%
    14:00 +6°C° 0.1 mm 5 mps 748 mmHg 77%
    15:00 +6°C° 0.1 mm 5 mps 747 mmHg 79%
    16:00 +5°C° 0 mm 5 mps 747 mmHg 81%
    17:00 +5°C° 0 mm 5 mps 747 mmHg 82%
    18:00 +3°C° 0 mm 5 mps 747 mmHg 84%
    19:00 +3°C° 0.1 mm 5 mps 747 mmHg 85%
    20:00 +3°C° 0.1 mm 5 mps 747 mmHg 86%
    21:00 +4°C° 0.1 mm 4 mps 747 mmHg 88%
    22:00 +4°C° 0 mm 4 mps 747 mmHg 88%
    23:00 +3°C° 0 mm 4 mps 747 mmHg 88%

    Tomorrow, 12 December, Thursday

    Time Temperature Precipitation Wind Pressure Humidity
    00:00 +3°C° 0 mm 3 mps 747 mmHg 88%
    01:00 +2°C° 0 mm 3 mps 747 mmHg 87%
    02:00 +2°C° 0 mm 3 mps 747 mmHg 87%
    03:00 +2°C° 0 mm 3 mps 747 mmHg 87%
    04:00 +1°C° 0 mm 3 mps 747 mmHg 87%
    05:00 +1°C° 0 mm 3 mps 747 mmHg 88%
    06:00 +1°C° 0 mm 3 mps 747 mmHg 88%
    07:00 +1°C° 0 mm 3 mps 746 mmHg 88%
    08:00 0°C° 0 mm 4 mps 746 mmHg 87%
    09:00 +1°C° 0 mm 4 mps 746 mmHg 87%
    10:00 +2°C° 0 mm 5 mps 745 mmHg 83%
    11:00 +2°C° 0 mm 6 mps 744 mmHg 80%
    12:00 +3°C° 0 mm 7 mps 743 mmHg 76%
    13:00 +2°C° 0 mm 8 mps 741 mmHg 76%
    14:00 +2°C° 0 mm 8 mps 740 mmHg 76%
    15:00 +2°C° 0 mm 9 mps 738 mmHg 76%
    16:00 +2°C° 0.5 mm 10 mps 736 mmHg 80%
    17:00 +3°C° 0.5 mm 10 mps 735 mmHg 83%
    18:00 +3°C° 0.5 mm 11 mps 733 mmHg 86%
    19:00 +5°C° 1.4 mm 10 mps 732 mmHg 87%
    20:00 +5°C° 1.4 mm 9 mps 731 mmHg 88%
    21:00 +6°C° 1.4 mm 7 mps 730 mmHg 89%
    22:00 +5°C° 0.7 mm 7 mps 729 mmHg 90%
    23:00 +5°C° 0.7 mm 6 mps 728 mmHg 92%

    Day after tomorrow, 13 December, Friday

    Time Temperature Precipitation Wind Pressure Humidity
    00:00 +5°C° 0.7 mm 6 mps 727 mmHg 93%
    01:00 +5°C° 1.3 mm 6 mps 726 mmHg 91%
    02:00 +5°C° 1.3 mm 7 mps 726 mmHg 90%
    03:00 +5°C° 1.3 mm 7 mps 725 mmHg 88%
    04:00 +4°C° 0.4 mm 7 mps 725 mmHg 85%
    05:00 +4°C° 0.4 mm 7 mps 726 mmHg 81%
    06:00 +2°C° 0.4 mm 8 mps 726 mmHg 78%
    07:00 +2°C° 0.3 mm 8 mps 727 mmHg 81%
    08:00 +2°C° 0.3 mm 9 mps 727 mmHg 84%
    09:00 +2°C° 0.3 mm 9 mps 728 mmHg 86%
    10:00 +2°C° 0.5 mm 9 mps 729 mmHg 83%
    11:00 +3°C° 0.5 mm 9 mps 730 mmHg 80%
    12:00 +3°C° 0.5 mm 10 mps 731 mmHg 76%
    13:00 +3°C° 0 mm 9 mps 732 mmHg 77%
    14:00 +5°C° 0 mm 8 mps 733 mmHg 77%
    15:00 +5°C° 0 mm 7 mps 733 mmHg 77%
    16:00 +5°C° 0 mm 7 mps 734 mmHg 78%
    17:00 +5°C° 0 mm 7 mps 735 mmHg 79%
    18:00 +5°C° 0 mm 7 mps 736 mmHg 80%
    19:00 +5°C° 0 mm 6 mps 737 mmHg 80%
    20:00 +4°C° 0 mm 6 mps 738 mmHg 79%
    21:00 +5°C° 0 mm 5 mps 738 mmHg 79%
    22:00 +4°C° 0 mm 6 mps 738 mmHg 81%
    23:00 +4°C° 0 mm 6 mps 738 mmHg 84%

    14 December, Saturday

    Time Temperature Precipitation Wind Pressure Humidity
    00:00 +4°C° 0 mm 6 mps 737 mmHg 86%
    01:00 +5°C° 0.4 mm 8 mps 737 mmHg 83%
    02:00 +6°C° 0.4 mm 9 mps 736 mmHg 80%
    03:00 +8°C° 0.4 mm 11 mps 735 mmHg 77%
    04:00 +7°C° 0 mm 10 mps 736 mmHg 74%
    05:00 +6°C° 0 mm 10 mps 737 mmHg 72%
    06:00 +6°C° 0 mm 10 mps 738 mmHg 69%
    07:00 +5°C° 0 mm 9 mps 738 mmHg 68%
    08:00 +5°C° 0 mm 9 mps 739 mmHg 66%
    09:00 +5°C° 0 mm 9 mps 740 mmHg 65%
    10:00 +5°C° 0 mm 8 mps 740 mmHg 64%
    11:00 +6°C° 0 mm 8 mps 741 mmHg 64%
    12:00 +8°C° 0 mm 7 mps 741 mmHg 63%
    13:00 +7°C° 0.8 mm 6 mps 741 mmHg 72%
    14:00 +7°C° 0.8 mm 5 mps 741 mmHg 80%
    15:00 +6°C° 0.8 mm 4 mps 741 mmHg 88%
    16:00 +6°C° 0.3 mm 4 mps 741 mmHg 87%
    17:00 +5°C° 0.3 mm 4 mps 742 mmHg 86%
    18:00 +5°C° 0.3 mm 4 mps 742 mmHg 86%
    19:00 +5°C° 0.4 mm 4 mps 743 mmHg 86%
    20:00 +5°C° 0.4 mm 4 mps 744 mmHg 86%
    21:00 +5°C° 0.4 mm 4 mps 744 mmHg 87%
    22:00 +4°C° 0 mm 4 mps 744 mmHg 88%
    23:00 +4°C° 0 mm 4 mps 744 mmHg 90%

    15 December, Sunday

    Time Temperature Precipitation Wind Pressure Humidity
    00:00 +3°C° 0 mm 4 mps 743 mmHg 91%
    01:00 +3°C° 0 mm 5 mps 742 mmHg 90%
    02:00 +3°C° 0 mm 7 mps 741 mmHg 90%
    03:00 +4°C° 0 mm 8 mps 740 mmHg 89%
    04:00 +3°C° 0.8 mm 9 mps 740 mmHg 81%
    05:00 +3°C° 0.8 mm 10 mps 740 mmHg 74%
    06:00 +5°C° 0.8 mm 10 mps 740 mmHg 66%
    07:00 +4°C° 0 mm 11 mps 741 mmHg 64%
    08:00 +4°C° 0 mm 12 mps 742 mmHg 63%
    09:00 +4°C° 0 mm 13 mps 743 mmHg 61%
    10:00 +4°C° 0 mm 11 mps 745 mmHg 60%
    11:00 +5°C° 0 mm 10 mps 746 mmHg 60%
    12:00 +5°C° 0 mm 8 mps 748 mmHg 59%
    13:00 +5°C° 0 mm 7 mps 748 mmHg 63%
    14:00 +4°C° 0 mm 6 mps 749 mmHg 66%
    15:00 +5°C° 0 mm 5 mps 749 mmHg 69%
    16:00 +5°C° 0 mm 5 mps 749 mmHg 70%
    17:00 +3°C° 0 mm 6 mps 750 mmHg 71%
    18:00 +2°C° 0 mm 6 mps 750 mmHg 72%
    19:00 +3°C° 0 mm 6 mps 750 mmHg 76%
    20:00 +3°C° 0 mm 6 mps 750 mmHg 79%
    21:00 +3°C° 0 mm 7 mps 750 mmHg 83%
    22:00 +3°C° 0 mm 6 mps 750 mmHg 83%
    23:00 +3°C° 0 mm 6 mps 750 mmHg 84%

    16 December, Monday

    Time Temperature Precipitation Wind Pressure Humidity
    00:00 +3°C° 0 mm 6 mps 749 mmHg 84%
    01:00 +3°C° 0 mm 6 mps 749 mmHg 85%
    02:00 +3°C° 0 mm 5 mps 749 mmHg 86%
    03:00 +3°C° 0 mm 5 mps 749 mmHg 86%
    04:00 +4°C° 0 mm 4 mps 749 mmHg 86%
    05:00 +4°C° 0 mm 4 mps 749 mmHg 86%
    06:00 +4°C° 0 mm 4 mps 748 mmHg 86%
    07:00 +4°C° 0 mm 4 mps 748 mmHg 86%
    08:00 +4°C° 0 mm 4 mps 748 mmHg 85%
    09:00 +3°C° 0 mm 5 mps 748 mmHg 84%
    10:00 +5°C° 0 mm 4 mps 748 mmHg 85%
    11:00 +5°C° 0 mm 4 mps 748 mmHg 86%
    12:00 +6°C° 0 mm 4 mps 747 mmHg 86%
    13:00 +6°C° 0.3 mm 4 mps 747 mmHg 89%
    14:00 +6°C° 0.3 mm 4 mps 747 mmHg 91%
    15:00 +5°C° 0.3 mm 3 mps 746 mmHg 94%
    16:00 +5°C° 0 mm 3 mps 746 mmHg 95%
    17:00 +5°C° 0 mm 3 mps 746 mmHg 95%
    18:00 +6°C° 0 mm 2 mps 745 mmHg 96%
    19:00 +6°C° 0.1 mm 2 mps 745 mmHg 96%
    20:00 +7°C° 0.1 mm 1 mps 745 mmHg 96%
    21:00 +7°C° 0.1 mm 1 mps 745 mmHg 96%
    22:00 +7°C° 0.7 mm 1 mps 744 mmHg 97%
    23:00 +6°C° 0.7 mm 0 mps 744 mmHg 97%
    Show more